Wind_Speed
21 23 24 21 16 20 17 13 9 7 4 3 4 6 10 14 10 16 11 18 9 11 20 27 20 15 16 17 15 13 11 10 8 6 7 10 11 9 12 15 16 16 14 12 13 12 12 12 12
25 23 17 25 23 20 18 17 12 8 6 3 3 2 12 10 11 9 12 11 10 20 26 29 24 22 18 18 16 14 12 9 7 7 7 11 9 9 13 15 15 16 16 14 14 14 13 13 14
27 21 24 23 24 17 18 20 19 14 10 6 9 3 2 6 8 7 12 11 10 19 13 25 25 16 17 18 15 13 12 9 9 8 9 10 9 10 13 15 16 16 16 16 16 14 13 14 14
26 27 28 26 24 20 18 19 18 15 12 16 13 12 1 5 4 4 9 10 22 25 27 24 20 21 18 17 16 15 14 10 10 9 10 10 11 10 13 13 14 14 14 15 15 13 11 12 13
28 32 38 26 25 19 18 17 8 13 14 19 22 21 22 5 4 10 13 12 15 22 30 20 19 20 19 18 16 14 12 12 11 10 11 9 10 10 12 11 13 13 12 12 12 11 10 9 9
31 29 29 25 26 25 21 19 18 17 14 15 13 16 18 25 26 23 24 24 27 27 18 17 18 17 15 16 14 13 11 10 9 7 9 12 10 11 12 12 13 15 13 9 9 9 10 9 9
38 30 26 24 26 24 19 21 18 18 13 14 14 13 14 18 20 27 23 20 18 21 20 16 15 16 14 14 12 11 9 8 7 6 9 8 9 11 9 10 11 13 14 11 6 7 8 10 11
28 29 20 25 25 25 26 25 24 20 21 16 12 11 10 11 15 13 20 21 20 15 16 16 17 15 14 13 11 9 7 7 7 6 8 8 11 11 11 11 12 12 11 12 8 5 4 7 9
30 22 18 25 23 23 26 22 23 23 21 18 16 10 8 9 8 5 16 16 16 16 12 14 14 12 10 8 8 7 6 7 7 6 9 7 7 12 11 10 10 10 11 11 9 9 9 9 6
19 15 20 21 20 25 21 21 21 23 23 22 15 13 9 5 5 6 10 10 11 12 12 12 11 8 7 5 4 2 3 5 8 6 6 2 9 13 12 11 9 7 10 9 10 9 9 10 8
17 15 15 16 18 21 21 26 26 26 25 22 19 16 13 9 4 3 6 7 10 12 13 14 11 11 7 5 4 3 2 2 5 4 5 6 9 10 9 10 9 6 7 7 7 9 9 9 9
11 8 12 13 16 22 26 29 26 28 26 19 16 15 15 14 9 2 3 5 8 9 10 11 14 13 9 8 6 4 3 1 2 2 2 2 3 7 10 10 8 7 7 2 3 7 8 7 7
1 9 10 4 10 18 19 22 21 24 24 22 16 13 12 12 13 9 2 4 4 5 4 8 5 8 4 8 4 4 3 3 2 3 2 1 2 5 8 11 6 9 8 2 2 6 9 5 6
2 6 9 10 15 12 18 19 21 22 23 23 18 12 12 11 10 11 13 7 3 1 4 7 5 3 6 5 5 6 5 4 2 2 3 3 3 6 8 9 6 8 5 2 3 8 7 6 2
4 1 11 9 14 18 17 20 24 24 25 23 21 18 15 11 11 8 11 12 12 8 6 3 3 3 2 2 4 4 6 5 2 2 1 1 4 7 5 6 9 9 6 5 4 6 4 5 9
7 4 9 7 14 13 17 20 26 27 27 24 22 19 18 17 12 9 7 8 10 12 12 6 4 4 6 4 0 0 2 2 2 4 2 2 4 6 5 4 8 9 6 5 4 4 5 2 9
16 8 8 6 15 21 16 19 19 22 25 24 24 20 19 19 19 14 5 7 9 10 11 10 8 7 6 5 4 3 3 3 4 9 1 2 5 6 6 6 9 7 4 3 2 5 9 13 11
24 15 5 6 14 19 17 19 17 18 20 23 23 25 22 19 20 18 9 4 5 6 8 5 5 4 4 6 6 5 5 6 7 12 10 4 7 6 5 7 9 4 2 1 2 6 6 3 7
23 22 7 8 17 10 17 20 22 24 21 20 19 23 25 20 19 19 14 10 7 2 4 2 5 5 6 6 7 5 5 8 10 13 11 10 11 9 7 5 4 2 5 7 9 13 9 9 6
23 20 16 24 15 16 9 19 25 21 23 20 13 13 18 22 16 17 18 17 15 14 12 12 12 13 12 13 13 16 10 7 3 2 5 8 12 9 5 1 3 4 5 8 8 9 9 4 3
26 23 11 24 18 19 8 18 28 19 19 24 21 11 11 18 21 14 12 14 15 13 12 13 13 14 12 11 12 14 15 16 18 13 12 8 3 6 4 3 4 7 8 8 8 8 7 7 6
22 23 22 14 19 8 9 11 21 29 30 24 22 27 9 13 17 18 11 7 10 12 11 9 10 11 12 10 10 11 12 12 11 11 13 15 15 12 8 8 8 8 5 7 6 7 8 8 6
24 27 25 23 17 15 13 12 19 23 24 23 26 3 8 14 12 14 18 9 4 7 9 6 8 9 10 10 10 12 12 12 12 14 15 13 13 12 10 7 6 3 3 5 7 9 8 8 5
29 30 27 32 29 24 10 7 16 22 23 22 28 29 21 15 14 16 11 17 5 3 4 6 6 8 9 10 10 8 7 7 9 9 11 12 12 10 6 4 3 4 6 9 10 10 8 8 8
26 29 26 19 26 24 9 13 22 31 30 23 28 34 12 9 15 15 8 10 9 4 2 2 3 7 8 8 8 7 7 8 6 5 8 8 7 6 6 6 6 6 7 9 10 9 9 9 10
16 26 15 16 11 12 7 16 26 23 25 25 29 38 12 5 7 15 15 8 9 6 4 4 2 2 1 1 5 6 4 5 3 4 6 6 6 6 5 5 6 7 9 9 11 10 11 12 12
16 14 19 21 18 19 11 11 19 21 24 22 33 20 20 11 6 11 19 10 3 6 6 4 6 5 3 3 4 5 5 4 3 2 4 7 9 10 8 7 9 9 9 10 12 12 13 14 15
21 15 18 23 22 22 14 12 10 11 14 20 27 14 10 4 6 7 16 11 6 2 5 6 6 7 6 5 6 6 6 4 3 4 6 10 10 9 7 7 8 9 10 11 13 14 14 14 13
10 17 11 9 23 19 15 11 5 13 19 22 19 23 14 5 6 9 16 13 10 5 5 6 5 6 6 6 7 6 4 5 5 6 9 13 20 14 7 8 10 12 13 15 14 15 13 13 14
20 15 12 19 17 12 19 15 8 15 12 14 23 13 19 16 11 13 13 13 13 10 5 7 8 7 8 10 9 7 4 5 7 8 10 13 16 18 9 9 12 14 15 17 16 15 16 16 18
Wind_Direction
47 47 48 36 49 57 47 50 46 49 98 82 125 190 208 177 192 197 170 161 154 154 148 138 143 142 141 135 131 128 119 113 110 112 106 91 83 87 80 70 66 65 57 53 61 60 57 49 40
51 47 42 49 47 58 56 55 44 46 78 67 49 208 202 203 226 198 205 181 166 164 153 144 139 141 141 140 130 127 122 121 120 111 102 81 85 80 75 68 64 61 59 55 53 56 58 52 46
67 52 47 48 53 51 60 63 49 49 56 31 21 26 155 210 171 130 170 167 173 203 173 123 135 146 141 129 126 131 123 133 117 116 98 87 83 75 71 68 64 59 57 54 54 52 54 54 55
67 57 47 40 45 46 45 54 54 54 67 50 49 27 93 253 246 138 128 136 134 129 100 116 138 137 130 128 133 127 125 127 116 105 98 95 85 77 71 66 64 57 53 52 53 54 51 56 58
65 53 39 23 37 52 62 56 66 62 39 41 55 35 47 60 103 101 129 174 153 127 121 131 135 123 128 131 124 125 129 129 119 104 97 81 80 73 67 61 55 50 44 45 47 51 55 60 63
63 48 30 25 20 43 52 45 38 34 40 50 51 50 51 58 98 119 110 110 116 118 133 138 124 123 131 127 132 136 133 130 128 115 106 71 63 73 61 55 47 39 32 31 37 41 53 45 42
52 47 25 33 27 39 28 48 39 49 48 43 58 64 68 66 92 99 110 124 132 134 136 140 133 135 138 136 146 134 133 139 127 118 88 77 66 67 51 39 39 29 19 11 35 33 48 50 45
64 53 28 35 33 36 45 37 32 49 48 48 50 61 70 84 97 94 125 126 121 131 141 139 138 139 135 135 126 132 142 132 120 101 89 73 69 63 56 44 40 37 26 26 7 352 34 45 54
31 43 47 44 36 39 46 46 43 53 57 49 51 46 72 78 103 106 135 141 144 155 154 153 143 141 140 128 122 141 136 118 94 90 89 94 97 76 51 45 39 35 23 27 18 19 35 29 43
38 359 42 48 43 49 50 52 45 36 39 51 58 69 60 73 72 108 168 157 148 147 170 175 162 157 163 150 151 160 111 87 82 92 89 59 47 50 30 25 21 23 18 16 38 30 29 40 48
31 21 27 30 36 54 53 46 42 42 37 34 44 59 67 59 54 94 156 190 179 177 190 200 189 192 207 188 212 234 140 83 84 92 90 69 29 27 13 9 15 5 2 2 4 19 14 22 33
24 46 39 26 19 37 33 39 28 34 28 27 31 42 47 59 52 65 126 161 176 193 203 198 210 200 190 231 219 211 222 242 42 100 132 111 40 23 359 342 332 338 346 358 357 17 346 347 24
231 249 111 95 18 37 37 40 34 37 23 12 27 25 36 44 52 67 91 141 151 202 193 175 223 244 209 236 231 200 201 264 294 338 343 145 43 4 355 337 315 333 347 332 348 9 4 358 9
129 11 317 290 66 35 42 38 34 27 31 9 22 29 24 35 53 75 98 96 80 145 121 160 221 217 237 208 204 194 187 241 329 320 331 0 359 359 21 26 352 18 328 322 31 355 1 315 78
144 168 26 60 60 42 58 39 36 26 30 24 26 24 21 32 35 43 55 79 84 64 59 94 67 74 94 112 153 177 192 201 196 118 71 244 322 345 9 38 21 22 15 332 19 345 24 92 89
99 319 317 44 41 54 35 47 28 27 24 22 21 22 22 26 32 38 55 79 90 103 86 86 70 76 71 66 137 240 283 320 276 210 212 199 313 310 313 343 0 7 18 47 31 72 71 117 92
326 328 256 217 21 35 28 27 17 17 26 19 15 17 19 22 21 32 65 72 87 79 81 84 69 78 73 31 14 355 316 289 285 298 353 281 293 294 324 348 329 325 357 1 58 86 79 72 65
304 40 199 98 34 23 3 5 326 357 22 18 9 21 24 27 29 27 62 89 51 60 36 30 94 78 11 331 318 325 339 320 293 293 294 297 277 294 311 330 322 301 7 337 114 79 62 91 79
320 340 245 97 129 90 19 344 334 329 341 359 0 8 21 28 38 46 63 84 85 62 22 57 69 37 20 7 2 317 265 289 308 295 292 273 267 282 285 320 342 324 77 57 74 79 89 97 100
295 327 330 359 16 50 53 308 317 320 323 336 2 359 24 33 39 57 68 68 72 77 82 84 84 79 68 55 56 57 65 59 40 32 347 290 261 244 243 305 24 49 63 104 66 52 51 61 38
307 301 353 334 9 314 342 287 304 302 306 320 318 352 48 40 36 29 48 59 54 59 75 81 80 75 72 64 61 66 64 57 48 59 44 39 94 176 181 167 123 99 89 65 39 28 29 30 27
270 300 282 241 268 315 266 275 298 307 321 345 330 332 86 46 26 26 15 25 51 36 41 73 79 76 66 62 65 66 65 70 61 58 60 64 72 95 104 113 113 104 57 50 8 8 4 7 10
240 256 245 244 248 259 274 279 264 295 326 320 318 16 78 42 62 36 16 8 33 45 22 52 88 87 80 76 76 74 62 57 54 56 55 55 66 75 81 83 76 31 9 348 344 335 341 338 335
235 249 241 241 246 248 291 336 308 320 295 303 307 316 309 29 52 26 17 9 354 37 16 11 72 88 84 78 69 57 46 41 43 39 36 41 41 42 46 45 22 339 345 333 327 319 325 325 329
252 254 271 250 248 270 278 315 306 301 294 320 300 308 268 21 1 13 14 12 15 352 329 336 62 107 106 91 73 44 26 26 38 27 17 14 22 10 4 354 355 347 331 328 319 328 333 326 334
263 245 231 256 270 283 262 296 315 328 324 318 312 317 276 173 11 360 351 357 25 357 354 275 222 214 180 49 12 9 6 16 56 62 16 21 25 4 336 342 330 336 334 325 310 311 324 327 331
289 250 226 236 230 255 246 276 307 324 327 311 323 320 292 313 21 348 330 333 6 21 6 328 252 249 265 311 327 331 328 348 15 10 350 340 343 337 345 341 340 348 351 343 329 322 315 317 320
246 275 254 231 239 238 232 255 279 332 320 294 288 257 184 285 336 329 317 300 303 316 343 341 295 264 262 280 289 303 312 340 14 28 2 3 346 335 353 349 354 353 349 342 331 322 316 310 315
292 282 289 284 242 245 235 191 231 293 323 305 276 265 172 188 257 289 297 282 283 296 316 316 309 281 262 258 272 282 304 319 346 7 19 5 5 332 327 329 326 324 326 324 314 310 308 310 308
233 230 231 251 252 246 253 192 204 293 302 314 281 278 317 288 228 263 278 282 274 278 286 283 301 289 267 258 262 270 286 310 331 337 323 337 360 22 352 332 322 322 330 327 314 305 302 305 305
Height
5883 5882 5879 5880 5879 5871 5872 5873 5871 5871 5872 5873 5875 5876 5877 5877 5880 5883 5884 5886 5889 5891 5893 5896 5898 5900 5900 5901 5902 5904 5905 5906 5907 5908 5909 5910 5912 5913 5912 5910 5910 5909 5910 5909 5909 5909 5908 5907 5906
5887 5887 5887 5882 5880 5876 5874 5873 5874 5874 5874 5876 5877 5876 5878 5878 5879 5882 5884 5887 5889 5891 5893 5896 5898 5901 5901 5903 5903 5907 5908 5908 5909 5910 5911 5911 5913 5913 5912 5912 5912 5912 5912 5912 5910 5910 5910 5908 5907
5889 5894 5891 5887 5883 5881 5877 5875 5876 5877 5877 5879 5879 5880 5880 5880 5881 5883 5885 5887 5890 5892 5895 5897 5900 5904 5905 5904 5907 5909 5910 5912 5911 5913 5913 5913 5914 5914 5913 5913 5914 5914 5914 5913 5912 5911 5910 5909 5908
5893 5890 5891 5888 5889 5884 5882 5878 5877 5879 5882 5880 5880 5880 5879 5879 5882 5883 5885 5888 5891 5893 5895 5899 5902 5904 5906 5908 5910 5910 5913 5914 5915 5915 5914 5914 5913 5914 5914 5914 5914 5914 5915 5914 5913 5912 5912 5911 5910
5896 5887 5885 5889 5891 5888 5886 5883 5882 5880 5881 5881 5880 5881 5879 5879 5880 5883 5887 5889 5891 5894 5896 5902 5904 5905 5908 5910 5910 5912 5913 5914 5914 5914 5914 5915 5914 5915 5915 5915 5914 5914 5914 5913 5913 5913 5913 5913 5911
5897 5897 5895 5892 5889 5889 5887 5886 5883 5884 5884 5885 5885 5886 5886 5886 5885 5888 5889 5893 5897 5898 5900 5903 5904 5906 5910 5910 5911 5913 5914 5915 5915 5914 5916 5916 5916 5915 5915 5915 5915 5915 5914 5914 5914 5914 5913 5914 5912
5890 5897 5902 5898 5893 5892 5891 5890 5889 5889 5890 5888 5888 5889 5891 5890 5892 5892 5894 5896 5898 5899 5901 5905 5906 5908 5911 5911 5913 5914 5914 5916 5915 5916 5915 5915 5916 5916 5916 5916 5916 5916 5914 5914 5914 5914 5915 5915 5914
5902 5899 5908 5901 5898 5898 5895 5890 5889 5892 5892 5893 5892 5892 5894 5894 5893 5895 5896 5898 5900 5902 5904 5905 5907 5909 5912 5914 5914 5915 5917 5917 5917 5915 5916 5917 5916 5916 5917 5917 5917 5917 5917 5915 5914 5914 5915 5916 5916
5908 5907 5907 5904 5905 5904 5900 5899 5897 5898 5898 5896 5895 5895 5896 5895 5896 5896 5899 5901 5903 5904 5907 5908 5907 5910 5913 5915 5915 5917 5919 5918 5916 5916 5917 5916 5915 5916 5919 5919 5919 5919 5918 5917 5916 5915 5916 5917 5917
5918 5913 5911 5911 5912 5908 5907 5904 5902 5898 5898 5898 5899 5898 5898 5898 5897 5898 5900 5901 5903 5904 5906 5908 5907 5910 5912 5915 5916 5918 5918 5918 5916 5918 5918 5914 5910 5917 5919 5920 5921 5920 5919 5918 5918 5917 5917 5917 5917
5917 5919 5915 5916 5914 5912 5910 5907 5905 5902 5900 5900 5898 5899 5900 5900 5899 5899 5900 5901 5902 5905 5905 5906 5907 5909 5912 5913 5915 5916 5917 5917 5918 5918 5918 5918 5916 5918 5920 5920 5920 5919 5919 5918 5918 5918 5917 5917 5917
5921 5917 5919 5921 5919 5914 5909 5907 5907 5904 5903 5903 5903 5900 5900 5901 5900 5899 5900 5900 5903 5903 5904 5905 5906 5907 5910 5913 5914 5915 5916 5916 5917 5918 5919 5919 5919 5919 5920 5921 5919 5918 5917 5916 5918 5918 5917 5916 5916
5919 5906 5915 5918 5921 5920 5914 5911 5910 5909 5907 5906 5904 5904 5903 5902 5902 5901 5899 5900 5902 5902 5904 5906 5905 5906 5909 5911 5912 5914 5914 5915 5916 5919 5921 5923 5923 5922 5920 5918 5918 5920 5919 5917 5916 5917 5917 5916 5916
5920 5921 5921 5923 5919 5923 5918 5918 5914 5912 5910 5908 5906 5907 5905 5903 5905 5906 5904 5902 5901 5901 5904 5905 5907 5906 5909 5910 5911 5912 5913 5914 5918 5920 5921 5922 5923 5924 5920 5917 5918 5918 5918 5917 5915 5917 5916 5916 5916
5920 5920 5924 5922 5923 5924 5922 5922 5920 5917 5911 5911 5908 5906 5906 5903 5902 5903 5903 5904 5904 5904 5904 5906 5907 5908 5908 5910 5910 5911 5913 5914 5916 5917 5917 5919 5921 5922 5921 5917 5918 5917 5917 5916 5917 5917 5917 5916 5916
5922 5923 5925 5927 5925 5923 5924 5922 5923 5920 5916 5914 5912 5910 5907 5904 5903 5903 5904 5905 5905 5907 5907 5908 5907 5909 5909 5910 5911 5913 5915 5917 5916 5915 5914 5916 5918 5921 5921 5918 5918 5917 5916 5917 5917 5917 5917 5916 5915
5920 5927 5925 5924 5922 5921 5923 5922 5926 5925 5922 5918 5917 5914 5910 5906 5904 5903 5904 5906 5907 5907 5907 5909 5907 5909 5910 5911 5914 5915 5916 5917 5916 5918 5918 5915 5916 5918 5918 5916 5917 5917 5917 5917 5917 5917 5917 5917 5917
5920 5923 5922 5920 5921 5917 5921 5919 5925 5926 5923 5923 5924 5918 5912 5909 5905 5903 5903 5905 5907 5907 5908 5908 5910 5911 5911 5910 5913 5914 5914 5914 5914 5913 5915 5912 5914 5914 5913 5915 5916 5917 5917 5918 5918 5917 5919 5918 5918
5920 5922 5921 5913 5913 5915 5916 5924 5926 5925 5922 5926 5925 5922 5915 5911 5908 5906 5905 5908 5910 5909 5908 5908 5909 5910 5911 5910 5910 5911 5913 5913 5912 5911 5910 5909 5912 5912 5913 5915 5917 5916 5917 5919 5920 5919 5919 5918 5918
5920 5922 5919 5919 5916 5908 5920 5926 5927 5924 5923 5923 5922 5922 5918 5914 5914 5910 5910 5910 5910 5910 5909 5909 5911 5912 5912 5911 5910 5911 5912 5912 5912 5910 5906 5907 5909 5911 5912 5914 5915 5916 5917 5919 5920 5920 5919 5920 5919
5919 5921 5917 5918 5912 5925 5927 5924 5917 5921 5922 5922 5922 5921 5917 5916 5915 5915 5913 5912 5913 5914 5912 5912 5913 5912 5913 5914 5913 5911 5911 5910 5910 5908 5909 5909 5907 5909 5911 5912 5914 5916 5917 5919 5919 5920 5920 5920 5919
5921 5919 5921 5921 5921 5923 5924 5924 5918 5920 5919 5922 5924 5921 5917 5916 5915 5916 5916 5914 5913 5913 5913 5913 5914 5915 5915 5914 5914 5913 5913 5914 5914 5914 5913 5911 5910 5909 5911 5913 5914 5916 5917 5918 5918 5918 5918 5918 5918
5915 5914 5915 5916 5916 5918 5920 5922 5921 5921 5920 5921 5919 5917 5916 5915 5915 5915 5917 5916 5915 5915 5914 5914 5915 5915 5916 5916 5916 5916 5916 5916 5916 5914 5913 5913 5913 5913 5914 5915 5916 5916 5917 5916 5917 5916 5916 5916 5916
5906 5906 5909 5911 5912 5912 5917 5919 5917 5917 5918 5920 5913 5913 5917 5913 5915 5915 5917 5917 5915 5915 5916 5915 5914 5914 5915 5916 5917 5917 5917 5917 5916 5915 5915 5914 5914 5914 5915 5915 5915 5915 5915 5915 5915 5915 5915 5914 5913
5904 5905 5906 5907 5908 5909 5914 5914 5914 5912 5910 5913 5913 5914 5910 5911 5912 5912 5915 5917 5916 5915 5916 5916 5914 5914 5915 5916 5917 5918 5917 5916 5916 5916 5915 5914 5914 5913 5914 5914 5915 5915 5914 5914 5913 5912 5911 5911 5910
5898 5900 5901 5901 5903 5905 5908 5909 5905 5906 5909 5907 5905 5901 5905 5900 5905 5908 5914 5914 5915 5915 5915 5915 5915 5914 5914 5915 5916 5916 5916 5915 5915 5914 5913 5912 5913 5913 5913 5913 5912 5912 5912 5912 5910 5910 5909 5907 5907
5894 5895 5899 5897 5899 5899 5904 5907 5906 5906 5904 5902 5900 5897 5895 5898 5897 5905 5912 5913 5914 5916 5915 5914 5913 5913 5913 5913 5913 5913 5913 5913 5913 5913 5913 5913 5912 5911 5911 5911 5911 5911 5910 5910 5909 5908 5906 5905 5904
5891 5894 5895 5895 5895 5896 5900 5903 5908 5906 5904 5902 5899 5895 5892 5894 5895 5904 5909 5910 5911 5913 5913 5912 5911 5911 5911 5911 5911 5911 5911 5911 5911 5912 5912 5911 5910 5909 5909 5909 5910 5910 5909 5908 5906 5905 5904 5903 5901
5889 5888 5890 5892 5894 5895 5897 5899 5902 5904 5901 5896 5895 5891 5882 5887 5898 5903 5906 5907 5908 5909 5910 5910 5909 5909 5909 5909 5908 5909 5909 5909 5909 5909 5910 5909 5908 5905 5906 5907 5907 5906 5905 5905 5903 5901 5901 5900 5899
5883 5883 5885 5886 5889 5892 5895 5899 5903 5898 5895 5889 5887 5889 5882 5886 5895 5900 5903 5905 5907 5907 5907 5907 5906 5906 5906 5906 5905 5906 5907 5908 5907 5907 5908 5907 5907 5904 5903 5903 5903 5902 5901 5900 5899 5897 5896 5895 5895